Weather History for KORL - November, 2012

Change the Weather History Date:

Friday, November 9, 2012

  Actual Average Record
Temperature  
Mean Temperature 62 °F -  
Max Temperature 73 °F 76 °F 82 °F (2000)
Min Temperature 50 °F 59 °F 48 °F (1997)
Degree Days  
Heating Degree Days 4    
Growing Degree Days 12 (Base 50)    
Moisture  
Dew Point 43 °F    
Average Humidity 56    
Maximum Humidity 86    
Minimum Humidity 22    
Precipitation  
Precipitation 0.00 in - - ()
Sea Level Pressure  
Sea Level Pressure 30.25 in    
Wind  
Wind Speed 4 mph (NNE)    
Max Wind Speed 10 mph    
Max Gust Speed -    
Visibility 10 miles    
Events      
Averages and records for this station are not official NWS values.
T = Trace of Precipitation, MM = Missing Value Source: NWS Daily Summary

Daily Weather History Graph

Daily Weather History Graph

Search for Another Location

Airport or City:

Trip Planner

Search our weather history database for the weather conditions in past years. The results will help you decide how hot, cold, wet, or windy it might be!

Date:

Astronomy

Nov. 09, 2012 Rise Set
Actual Time 6:43 AM EST 5:34 PM EST
Civil Twilight 6:18 AM EST 5:59 PM EST
Nautical Twilight 5:50 AM EST 6:27 PM EST
Astronomical Twilight 5:22 AM EST 6:55 PM EST
Moon 2:03 AM EST (11/9) 2:27 PM EST (11/9)
Length of Visible Light 11h 40m
Length of Day
10h 50m
Waning Crescent, 23% of the Moon is Illuminated
Nov 9
Waning Crescent
Nov 13
New
Nov 20
First Quarter
Nov 28
Full
Dec 6
Last Quarter

Hourly Weather History & Observations

Time (EST) Temp. Dew Point Humidity Pressure Visibility Wind Dir Wind Speed Gust Speed Precip Events Conditions
12:53 AM 51.1 °F 44.1 °F 77% 30.20 in 10.0 mi Calm Calm - N/A   Clear
1:53 AM 51.1 °F 44.1 °F 77% 30.20 in 10.0 mi Calm Calm - N/A   Clear
2:53 AM 50.0 °F 46.0 °F 86% 30.20 in 10.0 mi Calm Calm - N/A   Clear
3:53 AM 51.1 °F 44.1 °F 77% 30.21 in 10.0 mi Calm Calm - N/A   Clear
4:53 AM 51.1 °F 44.1 °F 77% 30.22 in 10.0 mi NNW 3.5 mph - N/A   Clear
5:53 AM 51.1 °F 44.1 °F 77% 30.23 in 10.0 mi NNW 3.5 mph - N/A   Clear
6:53 AM 52.0 °F 43.0 °F 71% 30.25 in 10.0 mi North 4.6 mph - N/A   Clear
7:53 AM 55.9 °F 45.0 °F 67% 30.27 in 10.0 mi North 5.8 mph - N/A   Clear
8:53 AM 61.0 °F 42.1 °F 50% 30.28 in 10.0 mi North 8.1 mph - N/A   Clear
9:53 AM 64.9 °F 44.1 °F 47% 30.29 in 10.0 mi NNE 10.4 mph - N/A   Clear
10:53 AM 68.0 °F 45.0 °F 43% 30.30 in 10.0 mi NNE 9.2 mph - N/A   Clear
11:53 AM 70.0 °F 42.1 °F 36% 30.28 in 10.0 mi NNE 9.2 mph - N/A   Clear
12:53 PM 71.1 °F 35.1 °F 27% 30.26 in 10.0 mi Variable 5.8 mph - N/A   Clear
1:53 PM 73.0 °F 33.1 °F 23% 30.23 in 10.0 mi NNE 8.1 mph - N/A   Clear
2:53 PM 72.0 °F 32.0 °F 23% 30.22 in 10.0 mi ENE 6.9 mph - N/A   Clear
3:53 PM 72.0 °F 30.9 °F 22% 30.22 in 10.0 mi NE 8.1 mph - N/A   Clear
4:53 PM 70.0 °F 34.0 °F 27% 30.22 in 10.0 mi NE 6.9 mph - N/A   Clear
5:53 PM 64.9 °F 44.1 °F 47% 30.23 in 10.0 mi ENE 8.1 mph - N/A   Clear
6:53 PM 62.1 °F 46.9 °F 58% 30.25 in 10.0 mi NE 6.9 mph - N/A   Clear
7:53 PM 60.1 °F 46.9 °F 62% 30.25 in 10.0 mi NE 5.8 mph - N/A   Clear
8:53 PM 59.0 °F 46.9 °F 64% 30.27 in 10.0 mi NNE 4.6 mph - N/A   Clear
9:53 PM 57.9 °F 48.0 °F 70% 30.27 in 10.0 mi NNE 3.5 mph - N/A   Clear
10:53 PM 57.9 °F 48.0 °F 70% 30.27 in 10.0 mi North 5.8 mph - N/A   Clear
11:53 PM 57.9 °F 46.9 °F 67% 30.27 in 10.0 mi NNE 5.8 mph - N/A   Clear